WXM80 ListenWXM80 Stop

You find our weather info also at:

UK Metoffice

WeatherCloud

Weather Underground

Northeastern Weather Network

AWEKAS

Citizen Weather Observer Program (CWOP)

HAMweather, WeatherForYou, PWS Weather


Weather Underground History page Text

Daily Summary for June 30, 2017 Units:  English    Metric   Both
« Previous Day
Next Day »
Daily Weekly Monthly Yearly Custom
  High: Low: Average:
Temperature: 88.0 °F 69.4 °F 77.1 °F
Dew Point: 73.3 °F 60.3 °F 67.6 °F
Humidity: 84 % 60 % 73 %
Wind Speed: 6.1 mph 0.0 mph 2.1 mph
Wind Gust: 13.0 mph - -
Wind:- - SSW
Pressure: 29.99 in 29.85 in -
Precipitation: 0.02 in    
Historical Graphs
 
 
Tabular Data for June 30, 2017
Time Temperature Dew Point Pressure Wind Wind Speed Wind Gust Humidity Rainfall Rate (Hourly)
00:01 71.5 °F 61.6 °F 29.99 in West 1.8 mph 3.5 mph 71 % 0.00 in
00:06 71.4 °F 61.5 °F 29.98 in SSW 3.1 mph 5.8 mph 71 % 0.00 in
00:09 71.4 °F 61.5 °F 29.99 in SW 2.7 mph 4.6 mph 71 % 0.00 in
00:14 71.4 °F 61.5 °F 29.99 in South 1.7 mph 6.9 mph 71 % 0.00 in
00:19 71.4 °F 61.1 °F 29.98 in SW 2.7 mph 5.0 mph 70 % 0.00 in
00:24 71.3 °F 61.0 °F 29.98 in SSW 1.1 mph 3.5 mph 70 % 0.00 in
00:29 71.3 °F 61.0 °F 29.98 in SSW 1.7 mph 2.3 mph 70 % 0.00 in
00:34 71.3 °F 61.0 °F 29.98 in SSW 1.5 mph 3.5 mph 70 % 0.00 in
00:39 71.2 °F 60.9 °F 29.98 in SSW 2.2 mph 6.0 mph 70 % 0.00 in
00:44 71.2 °F 60.9 °F 29.98 in SSE 1.3 mph 3.5 mph 70 % 0.00 in
00:49 71.1 °F 60.8 °F 29.98 in SSW 2.2 mph 3.5 mph 70 % 0.00 in
00:54 71.1 °F 60.8 °F 29.98 in SSW 2.1 mph 3.5 mph 70 % 0.00 in
00:59 71.0 °F 60.3 °F 29.98 in SW 1.9 mph 5.8 mph 69 % 0.00 in
01:04 71.0 °F 60.7 °F 29.98 in SSW 0.7 mph 3.5 mph 70 % 0.00 in
01:09 70.9 °F 60.6 °F 29.98 in SW 1.6 mph 3.5 mph 70 % 0.00 in
01:14 70.8 °F 60.5 °F 29.98 in ESE 3.6 mph 4.6 mph 70 % 0.00 in
01:19 70.8 °F 60.5 °F 29.98 in SSW 2.5 mph 7.0 mph 70 % 0.00 in
01:24 70.7 °F 60.4 °F 29.98 in SSW 0.8 mph 3.5 mph 70 % 0.00 in
01:29 70.7 °F 60.4 °F 29.98 in WSW 2.2 mph 3.5 mph 70 % 0.00 in
01:35 70.6 °F 60.3 °F 29.98 in SSW 3.4 mph 9.2 mph 70 % 0.00 in
01:38 70.6 °F 60.3 °F 29.98 in SW 1.1 mph 2.3 mph 70 % 0.00 in
01:44 70.6 °F 60.3 °F 29.98 in WSW 1.4 mph 3.5 mph 70 % 0.00 in
01:49 70.6 °F 60.7 °F 29.98 in WSW 2.5 mph 6.9 mph 71 % 0.00 in
01:53 70.5 °F 60.6 °F 29.98 in WSW 0.8 mph 3.5 mph 71 % 0.00 in
01:58 70.5 °F 60.6 °F 29.98 in WSW 0.1 mph 3.5 mph 71 % 0.00 in
02:04 70.4 °F 60.5 °F 29.97 in West 1.8 mph 8.0 mph 71 % 0.00 in
02:09 70.4 °F 60.5 °F 29.97 in SW 0.9 mph 3.5 mph 71 % 0.00 in
02:14 70.4 °F 60.9 °F 29.97 in WSW 2.3 mph 4.0 mph 72 % 0.00 in
02:19 70.4 °F 60.9 °F 29.97 in NW 2.8 mph 7.0 mph 72 % 0.00 in
02:24 70.4 °F 60.9 °F 29.97 in SSW 1.4 mph 5.8 mph 72 % 0.00 in
02:29 70.5 °F 61.0 °F 29.97 in South 1.2 mph 1.2 mph 72 % 0.00 in
02:34 70.5 °F 61.0 °F 29.97 in SW 1.9 mph 4.6 mph 72 % 0.00 in
02:39 70.6 °F 61.1 °F 29.97 in SW 1.8 mph 6.9 mph 72 % 0.00 in
02:44 70.6 °F 61.1 °F 29.97 in WSW 1.5 mph 3.5 mph 72 % 0.00 in
02:49 70.6 °F 61.5 °F 29.97 in SW 1.6 mph 4.0 mph 73 % 0.00 in
02:54 70.7 °F 61.2 °F 29.97 in SW 0.7 mph 3.5 mph 72 % 0.00 in
02:59 70.7 °F 61.6 °F 29.97 in WSW 4.3 mph 5.0 mph 73 % 0.00 in
03:04 70.7 °F 61.6 °F 29.97 in SSE 1.4 mph 3.5 mph 73 % 0.00 in
03:09 70.8 °F 61.7 °F 29.97 in SW 3.4 mph 9.0 mph 73 % 0.00 in
03:14 70.8 °F 61.7 °F 29.96 in SW 3.7 mph 10.4 mph 73 % 0.00 in
03:19 70.9 °F 61.8 °F 29.96 in SW 2.3 mph 8.1 mph 73 % 0.00 in
03:24 70.9 °F 61.8 °F 29.96 in SW 1.8 mph 4.6 mph 73 % 0.00 in
03:29 71.0 °F 61.9 °F 29.96 in WSW 1.0 mph 3.5 mph 73 % 0.00 in
03:34 71.0 °F 61.9 °F 29.96 in SSW 3.2 mph 3.5 mph 73 % 0.00 in
03:40 71.0 °F 61.9 °F 29.95 in WSW 2.8 mph 3.5 mph 73 % 0.00 in
03:45 71.0 °F 61.9 °F 29.95 in SSW 1.8 mph 3.5 mph 73 % 0.00 in
03:50 71.0 °F 62.3 °F 29.95 in WSW 3.3 mph 6.9 mph 74 % 0.00 in
03:55 71.0 °F 62.3 °F 29.95 in SSW 0.6 mph 3.5 mph 74 % 0.00 in
04:00 70.9 °F 62.6 °F 29.95 in West 0.1 mph 2.3 mph 75 % 0.00 in
04:05 70.9 °F 62.6 °F 29.95 in WSW 5.0 mph 8.1 mph 75 % 0.00 in
04:10 70.8 °F 62.5 °F 29.95 in SW 2.2 mph 3.5 mph 75 % 0.00 in
04:15 70.8 °F 62.5 °F 29.94 in SSW 0.4 mph 2.3 mph 75 % 0.00 in
04:20 70.7 °F 62.8 °F 29.95 in WSW 2.8 mph 3.5 mph 76 % 0.00 in
04:25 70.7 °F 62.8 °F 29.95 in WSW 2.0 mph 3.5 mph 76 % 0.00 in
04:30 70.7 °F 62.8 °F 29.95 in West 0.7 mph 3.0 mph 76 % 0.00 in
04:35 70.6 °F 62.7 °F 29.95 in SW 5.3 mph 8.1 mph 76 % 0.00 in
04:40 70.6 °F 62.7 °F 29.95 in SSW 2.3 mph 5.8 mph 76 % 0.00 in
04:45 70.5 °F 62.9 °F 29.95 in SW 0.3 mph 5.8 mph 77 % 0.00 in
04:50 70.4 °F 62.8 °F 29.95 in SW 0.1 mph 1.2 mph 77 % 0.00 in
04:51 70.4 °F 62.8 °F 29.95 in SW 0.3 mph 3.0 mph 77 % 0.00 in
04:56 70.3 °F 62.7 °F 29.95 in WSW 0.2 mph 2.3 mph 77 % 0.00 in
05:01 70.2 °F 63.0 °F 29.95 in West 1.4 mph 3.5 mph 78 % 0.00 in
05:06 70.0 °F 62.8 °F 29.95 in WSW 1.4 mph 3.5 mph 78 % 0.00 in
05:11 69.9 °F 62.7 °F 29.95 in West 0.7 mph 3.0 mph 78 % 0.00 in
05:16 69.7 °F 62.9 °F 29.95 in SW 1.3 mph 4.0 mph 79 % 0.00 in
05:21 69.6 °F 62.8 °F 29.95 in SW 1.7 mph 5.8 mph 79 % 0.00 in
05:31 69.5 °F 63.1 °F 29.95 in SSW 1.7 mph 4.0 mph 80 % 0.00 in
05:36 69.4 °F 63.0 °F 29.95 in WSW 1.2 mph 3.5 mph 80 % 0.00 in
05:41 69.4 °F 63.0 °F 29.95 in SSW 1.1 mph 3.5 mph 80 % 0.00 in
05:46 69.4 °F 63.3 °F 29.95 in South 1.2 mph 3.5 mph 81 % 0.00 in
05:51 69.4 °F 63.3 °F 29.95 in SSW 1.6 mph 3.5 mph 81 % 0.00 in
05:56 69.4 °F 63.3 °F 29.96 in SW 2.4 mph 3.5 mph 81 % 0.00 in
06:01 69.4 °F 63.3 °F 29.95 in SW 0.3 mph 1.2 mph 81 % 0.00 in
06:06 69.5 °F 63.8 °F 29.95 in SSW 2.7 mph 4.0 mph 82 % 0.00 in
06:11 69.6 °F 63.9 °F 29.95 in SSW 3.1 mph 4.6 mph 82 % 0.00 in
06:16 69.7 °F 64.0 °F 29.95 in SSW 2.1 mph 3.5 mph 82 % 0.00 in
06:21 69.8 °F 64.1 °F 29.95 in SW 1.3 mph 2.3 mph 82 % 0.00 in
06:26 69.9 °F 64.2 °F 29.95 in SW 2.2 mph 4.6 mph 82 % 0.00 in
06:31 70.0 °F 64.2 °F 29.95 in SSW 0.4 mph 2.3 mph 82 % 0.00 in
06:36 70.1 °F 64.3 °F 29.95 in WSW 1.1 mph 4.6 mph 82 % 0.00 in
06:41 70.1 °F 64.3 °F 29.95 in SW 0.3 mph 2.0 mph 82 % 0.00 in
06:46 70.2 °F 64.4 °F 29.96 in West 1.5 mph 5.8 mph 82 % 0.00 in
06:51 70.2 °F 64.4 °F 29.96 in Calm   1.2 mph 82 % 0.00 in
06:56 70.3 °F 64.5 °F 29.95 in SSW 0.3 mph 3.5 mph 82 % 0.00 in
07:01 70.3 °F 64.5 °F 29.95 in SSW 1.9 mph 4.0 mph 82 % 0.00 in
07:06 70.3 °F 64.5 °F 29.95 in WSW 0.9 mph 2.3 mph 82 % 0.00 in
07:11 70.4 °F 64.6 °F 29.95 in WSW 1.1 mph 6.9 mph 82 % 0.00 in
07:16 70.4 °F 65.0 °F 29.95 in SSE 0.7 mph 2.3 mph 83 % 0.00 in
07:21 70.5 °F 64.7 °F 29.95 in WSW 1.2 mph 3.5 mph 82 % 0.00 in
07:26 70.5 °F 65.1 °F 29.95 in SW 0.4 mph 3.5 mph 83 % 0.00 in
07:31 70.6 °F 65.2 °F 29.96 in South 0.3 mph 2.3 mph 83 % 0.00 in
07:37 70.7 °F 65.3 °F 29.96 in WSW 0.3 mph 3.5 mph 83 % 0.00 in
07:42 70.8 °F 65.4 °F 29.96 in SW 1.2 mph 3.5 mph 83 % 0.00 in
07:47 70.9 °F 65.5 °F 29.97 in WSW 0.8 mph 3.5 mph 83 % 0.00 in
07:52 71.0 °F 65.6 °F 29.96 in Calm   3.5 mph 83 % 0.00 in
07:57 71.1 °F 65.7 °F 29.96 in WSW 0.7 mph 2.3 mph 83 % 0.00 in
08:02 71.3 °F 65.9 °F 29.97 in WSW 1.4 mph 4.0 mph 83 % 0.00 in
08:07 71.4 °F 66.0 °F 29.97 in SW 2.4 mph 4.6 mph 83 % 0.00 in
08:12 71.6 °F 66.2 °F 29.97 in SW 0.3 mph 3.5 mph 83 % 0.00 in
08:17 71.8 °F 66.4 °F 29.97 in WSW 3.3 mph 10.0 mph 83 % 0.00 in
08:22 72.0 °F 66.6 °F 29.97 in South 1.7 mph 5.8 mph 83 % 0.00 in
08:23 72.1 °F 66.6 °F 29.97 in West 2.9 mph 4.6 mph 83 % 0.00 in
08:28 72.4 °F 66.6 °F 29.97 in SSW 1.9 mph 3.5 mph 82 % 0.00 in
08:33 72.6 °F 66.4 °F 29.97 in SW 0.4 mph 4.6 mph 81 % 0.00 in
08:38 72.8 °F 67.0 °F 29.97 in SSW 0.1 mph 1.2 mph 82 % 0.00 in
08:43 73.1 °F 66.9 °F 29.97 in SW 1.4 mph 2.3 mph 81 % 0.00 in
08:48 73.3 °F 67.1 °F 29.97 in WSW 3.4 mph 5.0 mph 81 % 0.00 in
08:53 73.6 °F 67.0 °F 29.97 in SSW 1.4 mph 4.6 mph 80 % 0.00 in
08:58 73.9 °F 67.3 °F 29.97 in SW 3.4 mph 6.9 mph 80 % 0.00 in
09:03 74.1 °F 67.5 °F 29.96 in SSW 1.8 mph 6.9 mph 80 % 0.00 in
09:08 74.4 °F 67.5 °F 29.96 in SW 5.8 mph 6.9 mph 79 % 0.00 in
09:14 74.7 °F 67.4 °F 29.96 in SSW 2.7 mph 8.1 mph 78 % 0.00 in
09:19 74.9 °F 67.6 °F 29.96 in SW 1.8 mph 3.5 mph 78 % 0.00 in
09:24 75.2 °F 67.9 °F 29.96 in SSW 2.5 mph 4.6 mph 78 % 0.00 in
09:29 75.5 °F 68.5 °F 29.96 in SW 2.9 mph 6.0 mph 79 % 0.00 in
09:34 75.8 °F 68.4 °F 29.96 in SW 2.5 mph 5.8 mph 78 % 0.00 in
09:39 76.3 °F 68.9 °F 29.96 in SSW 1.6 mph 3.5 mph 78 % 0.00 in
09:44 76.8 °F 68.7 °F 29.96 in Calm   3.5 mph 76 % 0.00 in
09:47 77.1 °F 68.9 °F 29.96 in SW 1.2 mph 3.0 mph 76 % 0.00 in
09:52 77.6 °F 69.4 °F 29.96 in SW 0.7 mph 2.0 mph 76 % 0.00 in
09:57 78.0 °F 69.0 °F 29.96 in SSW 2.9 mph 4.6 mph 74 % 0.00 in
10:02 78.4 °F 69.4 °F 29.96 in SW 0.1 mph 2.3 mph 74 % 0.00 in
10:07 78.7 °F 69.7 °F 29.97 in West 1.5 mph 3.5 mph 74 % 0.00 in
10:12 79.0 °F 69.2 °F 29.97 in WSW 2.7 mph 5.8 mph 72 % 0.00 in
10:14 79.1 °F 69.7 °F 29.97 in West 2.6 mph 4.6 mph 73 % 0.00 in
10:19 79.4 °F 70.0 °F 29.96 in SW 2.0 mph 4.6 mph 73 % 0.00 in
10:24 79.6 °F 69.4 °F 29.96 in SSW 0.4 mph 2.3 mph 71 % 0.00 in
10:29 79.8 °F 70.0 °F 29.96 in SSW 1.1 mph 3.5 mph 72 % 0.00 in
10:34 80.2 °F 70.8 °F 29.96 in SSW 0.8 mph 3.5 mph 73 % 0.00 in
10:39 80.6 °F 70.7 °F 29.96 in SW 0.8 mph 2.3 mph 72 % 0.00 in
10:42 80.8 °F 70.5 °F 29.96 in SW 2.3 mph 3.5 mph 71 % 0.00 in
10:47 81.1 °F 70.4 °F 29.96 in SSW 2.7 mph 3.5 mph 70 % 0.00 in
10:52 81.2 °F 70.1 °F 29.96 in South 1.5 mph 4.6 mph 69 % 0.00 in
10:57 81.4 °F 71.5 °F 29.96 in SSW 1.4 mph 2.3 mph 72 % 0.00 in
11:02 81.8 °F 71.1 °F 29.96 in SW 0.5 mph 3.5 mph 70 % 0.00 in
11:07 82.1 °F 70.9 °F 29.96 in SSW 3.5 mph 6.9 mph 69 % 0.00 in
11:12 82.5 °F 71.3 °F 29.97 in SSW 0.9 mph 4.0 mph 69 % 0.00 in
11:17 82.8 °F 71.2 °F 29.96 in SSE 0.1 mph 3.5 mph 68 % 0.00 in
11:22 83.1 °F 71.9 °F 29.96 in SW 0.1 mph 4.6 mph 69 % 0.00 in
11:27 83.6 °F 72.3 °F 29.97 in WSW 1.3 mph 4.0 mph 69 % 0.00 in
11:32 84.0 °F 71.9 °F 29.97 in SE 3.5 mph 5.8 mph 67 % 0.00 in
11:37 84.4 °F 71.8 °F 29.97 in South 4.1 mph 10.4 mph 66 % 0.00 in
11:40 84.7 °F 72.1 °F 29.97 in SSW 4.3 mph 5.0 mph 66 % 0.00 in
11:45 85.2 °F 73.0 °F 29.96 in SSW 2.3 mph 4.6 mph 67 % 0.00 in
11:50 85.8 °F 72.7 °F 29.95 in SSW 0.9 mph 3.5 mph 65 % 0.00 in
11:55 86.2 °F 72.6 °F 29.95 in SW 2.2 mph 3.5 mph 64 % 0.00 in
12:01 86.4 °F 72.8 °F 29.95 in Calm     64 % 0.00 in
12:06 86.5 °F 71.9 °F 29.95 in Calm   1.2 mph 62 % 0.00 in
12:11 86.8 °F 72.2 °F 29.95 in SSE 0.7 mph 2.3 mph 62 % 0.00 in
12:16 86.8 °F 71.2 °F 29.95 in SSE 0.4 mph 5.8 mph 60 % 0.00 in
12:21 86.6 °F 72.0 °F 29.95 in South 3.2 mph 5.8 mph 62 % 0.00 in
12:26 86.2 °F 71.2 °F 29.95 in SSW 1.5 mph 3.5 mph 61 % 0.00 in
12:31 86.3 °F 73.1 °F 29.94 in SSE 1.3 mph 3.5 mph 65 % 0.00 in
12:36 86.4 °F 72.8 °F 29.95 in SSW 2.2 mph 4.0 mph 64 % 0.00 in
12:41 86.1 °F 72.0 °F 29.95 in SE 1.0 mph 3.5 mph 63 % 0.00 in
12:46 85.7 °F 71.7 °F 29.95 in SSE 1.0 mph 3.0 mph 63 % 0.00 in
12:51 85.3 °F 71.3 °F 29.94 in SSW 0.5 mph 2.3 mph 63 % 0.00 in
12:56 84.8 °F 71.3 °F 29.94 in SSE 1.6 mph 3.5 mph 64 % 0.00 in
13:01 84.4 °F 71.8 °F 29.94 in South 0.1 mph 1.2 mph 66 % 0.00 in
13:06 84.5 °F 71.9 °F 29.94 in SSE 1.3 mph 4.6 mph 66 % 0.00 in
13:11 84.6 °F 71.5 °F 29.93 in SSW 4.6 mph 5.8 mph 65 % 0.00 in
13:16 84.9 °F 71.8 °F 29.93 in SSW 1.5 mph 5.0 mph 65 % 0.00 in
13:21 85.3 °F 72.6 °F 29.93 in SSE 2.9 mph 10.0 mph 66 % 0.00 in
13:26 85.4 °F 72.3 °F 29.93 in SW 4.4 mph 8.1 mph 65 % 0.00 in
13:29 85.4 °F 71.4 °F 29.93 in ESE 2.8 mph 4.6 mph 63 % 0.00 in
13:34 85.6 °F 71.6 °F 29.93 in SSE 1.2 mph 5.8 mph 63 % 0.00 in
13:39 85.7 °F 72.1 °F 29.93 in SSE 1.3 mph 4.6 mph 64 % 0.00 in
13:44 85.8 °F 72.2 °F 29.93 in South 1.5 mph 6.9 mph 64 % 0.00 in
13:49 86.2 °F 73.0 °F 29.92 in SW 3.7 mph 10.4 mph 65 % 0.00 in
13:54 86.6 °F 72.5 °F 29.92 in South 1.6 mph 6.0 mph 63 % 0.00 in
13:59 86.8 °F 72.7 °F 29.92 in SE 3.1 mph 6.9 mph 63 % 0.00 in
14:04 87.0 °F 72.9 °F 29.92 in SSW 5.0 mph 13.0 mph 63 % 0.00 in
14:09 87.1 °F 72.0 °F 29.92 in SW 2.8 mph 5.0 mph 61 % 0.00 in
14:14 87.2 °F 72.1 °F 29.92 in South 2.9 mph 8.0 mph 61 % 0.00 in
14:19 87.2 °F 71.6 °F 29.92 in South 2.0 mph 8.1 mph 60 % 0.00 in
14:21 87.2 °F 71.6 °F 29.92 in SSE 2.1 mph 4.6 mph 60 % 0.00 in
14:26 87.3 °F 73.2 °F 29.92 in ESE 2.7 mph 3.5 mph 63 % 0.00 in
14:31 87.4 °F 72.8 °F 29.91 in South 2.8 mph 8.0 mph 62 % 0.00 in
14:37 87.5 °F 71.9 °F 29.91 in SE 2.6 mph 3.5 mph 60 % 0.00 in
14:42 87.5 °F 72.9 °F 29.90 in SSE 1.0 mph 8.1 mph 62 % 0.00 in
14:47 87.5 °F 72.4 °F 29.91 in SSW 3.4 mph 9.2 mph 61 % 0.00 in
14:52 87.5 °F 72.4 °F 29.90 in South 3.1 mph 9.2 mph 61 % 0.00 in
14:54 87.4 °F 72.8 °F 29.90 in NE 1.0 mph 3.5 mph 62 % 0.00 in
14:59 87.4 °F 72.8 °F 29.90 in SW 3.8 mph 6.9 mph 62 % 0.00 in
15:04 87.6 °F 73.0 °F 29.90 in SW 3.1 mph 7.0 mph 62 % 0.00 in
15:09 87.8 °F 73.2 °F 29.89 in SSW 2.5 mph 5.0 mph 62 % 0.00 in
15:10 87.8 °F 72.7 °F 29.89 in West 3.5 mph 4.6 mph 61 % 0.00 in
15:15 88.0 °F 72.4 °F 29.89 in SSW 4.4 mph 4.6 mph 60 % 0.00 in
15:20 87.8 °F 72.2 °F 29.89 in SSW 2.5 mph 5.8 mph 60 % 0.00 in
15:25 87.4 °F 72.3 °F 29.89 in SSW 3.8 mph 8.1 mph 61 % 0.00 in
15:30 87.4 °F 72.8 °F 29.89 in SE 1.4 mph 11.5 mph 62 % 0.00 in
15:31 87.4 °F 73.3 °F 29.89 in SE 1.2 mph 3.5 mph 63 % 0.00 in
15:41 87.4 °F 73.3 °F 29.89 in South 1.5 mph 4.0 mph 63 % 0.00 in
15:46 87.0 °F 72.4 °F 29.89 in SSW 2.9 mph 5.8 mph 62 % 0.00 in
15:51 86.9 °F 72.3 °F 29.89 in SSE 2.4 mph 6.0 mph 62 % 0.00 in
15:56 86.5 °F 71.5 °F 29.89 in South 1.3 mph 3.5 mph 61 % 0.00 in
16:01 86.3 °F 72.2 °F 29.89 in South 3.6 mph 4.0 mph 63 % 0.00 in
16:06 86.3 °F 72.7 °F 29.88 in South 1.9 mph 3.5 mph 64 % 0.00 in
16:11 86.3 °F 72.2 °F 29.88 in SE 1.3 mph 5.8 mph 63 % 0.00 in
16:16 86.3 °F 73.1 °F 29.88 in South 2.9 mph 6.9 mph 65 % 0.00 in
16:21 86.4 °F 72.3 °F 29.88 in SSE 2.7 mph 8.0 mph 63 % 0.00 in
16:26 86.0 °F 71.9 °F 29.88 in SE 0.9 mph 5.8 mph 63 % 0.00 in
16:31 85.7 °F 72.1 °F 29.88 in SSE 3.3 mph 5.8 mph 64 % 0.00 in
16:36 85.4 °F 71.8 °F 29.88 in South 3.5 mph 6.9 mph 64 % 0.00 in
16:41 85.4 °F 72.3 °F 29.87 in SSE 2.7 mph 10.4 mph 65 % 0.00 in
16:46 85.4 °F 72.3 °F 29.87 in SE 1.8 mph 5.8 mph 65 % 0.00 in
16:51 85.1 °F 71.5 °F 29.87 in SSE 5.0 mph 6.9 mph 64 % 0.00 in
16:56 84.8 °F 71.7 °F 29.87 in South 4.0 mph 8.0 mph 65 % 0.00 in
17:02 84.3 °F 71.2 °F 29.86 in South 3.5 mph 8.1 mph 65 % 0.00 in
17:06 84.0 °F 71.0 °F 29.86 in SE 3.7 mph 5.8 mph 65 % 0.00 in
17:11 83.6 °F 71.0 °F 29.86 in SW 4.7 mph 10.0 mph 66 % 0.00 in
17:16 83.2 °F 70.7 °F 29.86 in SSW 4.2 mph 9.2 mph 66 % 0.00 in
17:21 82.9 °F 70.8 °F 29.86 in SE 1.9 mph 3.5 mph 67 % 0.00 in
17:26 82.6 °F 71.0 °F 29.86 in South 2.8 mph 5.8 mph 68 % 0.00 in
17:31 82.4 °F 70.3 °F 29.85 in SSE 3.3 mph 8.1 mph 67 % 0.00 in
17:37 82.0 °F 70.4 °F 29.85 in South 2.5 mph 10.4 mph 68 % 0.00 in
17:42 81.6 °F 70.0 °F 29.85 in SE 2.6 mph 4.6 mph 68 % 0.00 in
17:47 81.4 °F 70.2 °F 29.85 in SSW 2.6 mph 8.1 mph 69 % 0.00 in
17:52 81.2 °F 70.1 °F 29.85 in SSW 3.6 mph 7.0 mph 69 % 0.00 in
17:55 81.1 °F 70.0 °F 29.85 in SSE 2.1 mph 5.8 mph 69 % 0.00 in
18:00 80.8 °F 69.7 °F 29.85 in SW 2.7 mph 6.9 mph 69 % 0.00 in
18:05 80.6 °F 69.5 °F 29.85 in SW 3.0 mph 6.9 mph 69 % 0.00 in
18:10 80.4 °F 69.3 °F 29.85 in South 1.3 mph 2.3 mph 69 % 0.00 in
18:15 80.2 °F 69.1 °F 29.85 in SSW 1.7 mph 4.6 mph 69 % 0.00 in
18:20 80.1 °F 69.0 °F 29.85 in SSE 1.8 mph 5.8 mph 69 % 0.00 in
18:25 79.9 °F 68.8 °F 29.85 in SSE 2.7 mph 6.0 mph 69 % 0.00 in
18:30 79.7 °F 68.6 °F 29.85 in South 3.4 mph 5.8 mph 69 % 0.00 in
18:35 79.5 °F 68.4 °F 29.86 in SE 2.0 mph 4.0 mph 69 % 0.00 in
18:40 79.4 °F 68.8 °F 29.86 in SSW 2.9 mph 6.0 mph 70 % 0.00 in
18:45 79.2 °F 68.6 °F 29.86 in SSW 4.0 mph 6.9 mph 70 % 0.00 in
18:47 79.2 °F 68.6 °F 29.86 in SSW 3.2 mph 6.0 mph 70 % 0.00 in
18:51 79.1 °F 68.5 °F 29.86 in SSE 2.3 mph 4.6 mph 70 % 0.00 in
18:56 79.0 °F 68.8 °F 29.87 in SSW 5.0 mph 8.0 mph 71 % 0.00 in
19:01 78.9 °F 68.7 °F 29.87 in SSW 6.1 mph 9.0 mph 71 % 0.00 in
19:06 78.8 °F 68.6 °F 29.88 in SW 3.9 mph 6.0 mph 71 % 0.00 in
19:11 78.8 °F 68.6 °F 29.88 in South 3.3 mph 6.9 mph 71 % 0.00 in
19:16 78.7 °F 68.5 °F 29.88 in SSW 3.9 mph 6.9 mph 71 % 0.00 in
19:21 78.7 °F 68.5 °F 29.88 in East 4.3 mph 9.2 mph 71 % 0.00 in
19:26 78.7 °F 68.5 °F 29.88 in SSW 3.9 mph 9.0 mph 71 % 0.00 in
19:31 78.6 °F 68.4 °F 29.88 in South 4.7 mph 6.9 mph 71 % 0.00 in
19:36 78.5 °F 68.3 °F 29.88 in WSW 2.7 mph 11.5 mph 71 % 0.00 in
19:42 78.5 °F 68.3 °F 29.88 in South 5.3 mph 7.0 mph 71 % 0.00 in
19:47 78.4 °F 68.6 °F 29.88 in ESE 2.8 mph 9.2 mph 72 % 0.00 in
19:52 78.3 °F 68.5 °F 29.89 in SSE 3.0 mph 6.9 mph 72 % 0.00 in
19:57 78.3 °F 68.5 °F 29.89 in SSW 4.5 mph 8.1 mph 72 % 0.00 in
20:02 78.2 °F 68.4 °F 29.89 in SSW 5.0 mph 10.4 mph 72 % 0.00 in
20:07 78.2 °F 68.4 °F 29.89 in WSW 1.4 mph 5.0 mph 72 % 0.00 in
20:12 78.1 °F 68.7 °F 29.89 in SSW 3.5 mph 8.1 mph 73 % 0.00 in
20:17 78.1 °F 68.7 °F 29.90 in SW 3.8 mph 6.9 mph 73 % 0.00 in
20:22 78.0 °F 69.4 °F 29.89 in South 2.5 mph 4.0 mph 75 % 0.00 in
20:27 77.7 °F 69.5 °F 29.90 in SSW 3.9 mph 5.8 mph 76 % 0.00 in
20:32 77.4 °F 69.6 °F 29.90 in South 2.2 mph 8.1 mph 77 % 0.00 in
20:37 77.0 °F 70.0 °F 29.90 in South 3.2 mph 4.6 mph 79 % 0.00 in
20:42 76.6 °F 70.0 °F 29.90 in SSW 2.0 mph 3.5 mph 80 % 0.01 in
20:47 76.1 °F 69.8 °F 29.90 in South 1.6 mph 3.5 mph 81 % 0.01 in
20:52 75.6 °F 69.7 °F 29.91 in SSW 2.1 mph 3.5 mph 82 % 0.02 in
20:57 75.2 °F 69.3 °F 29.91 in SSW 1.8 mph 3.5 mph 82 % 0.02 in
21:03 74.8 °F 69.3 °F 29.91 in SSE 1.6 mph 3.5 mph 83 % 0.02 in
21:08 74.5 °F 69.0 °F 29.91 in SSW 1.9 mph 3.5 mph 83 % 0.02 in
21:13 74.2 °F 69.1 °F 29.92 in SE 1.2 mph 3.5 mph 84 % 0.02 in
21:18 73.9 °F 68.8 °F 29.92 in SSW 1.0 mph 3.5 mph 84 % 0.02 in
21:23 73.8 °F 68.7 °F 29.92 in SSW 1.9 mph 4.6 mph 84 % 0.02 in
21:28 73.7 °F 68.6 °F 29.93 in South 2.7 mph 5.8 mph 84 % 0.02 in
21:33 73.6 °F 68.5 °F 29.93 in SE 2.2 mph 3.5 mph 84 % 0.02 in
21:38 73.5 °F 68.4 °F 29.93 in SSE 1.0 mph 3.5 mph 84 % 0.01 in
21:43 73.5 °F 68.4 °F 29.92 in SSW 1.3 mph 3.5 mph 84 % 0.01 in
21:48 73.5 °F 68.4 °F 29.92 in South 1.4 mph 3.5 mph 84 % 0.00 in
21:53 73.5 °F 68.4 °F 29.92 in SSW 3.5 mph 6.9 mph 84 % 0.00 in
21:58 73.5 °F 68.4 °F 29.92 in SE 1.1 mph 3.5 mph 84 % 0.00 in
22:03 73.6 °F 68.5 °F 29.92 in SSW 1.8 mph 3.5 mph 84 % 0.00 in
22:08 73.7 °F 68.2 °F 29.92 in SE 1.5 mph 3.5 mph 83 % 0.00 in
22:13 73.8 °F 68.3 °F 29.92 in SSW 2.1 mph 5.8 mph 83 % 0.00 in
22:18 73.8 °F 68.7 °F 29.93 in South 1.8 mph 4.0 mph 84 % 0.00 in
22:23 73.9 °F 68.8 °F 29.92 in SSW 2.2 mph 3.5 mph 84 % 0.00 in
22:28 73.9 °F 68.8 °F 29.93 in South 2.0 mph 3.5 mph 84 % 0.00 in
22:33 73.9 °F 68.8 °F 29.93 in SSW 2.7 mph 3.5 mph 84 % 0.00 in
22:38 73.9 °F 68.8 °F 29.92 in South 2.1 mph 5.8 mph 84 % 0.00 in
22:43 74.0 °F 68.5 °F 29.92 in South 1.4 mph 5.8 mph 83 % 0.00 in
22:48 74.1 °F 68.6 °F 29.92 in SSW 2.5 mph 5.8 mph 83 % 0.00 in
22:53 74.1 °F 68.6 °F 29.92 in SSW 0.4 mph 4.6 mph 83 % 0.00 in
22:58 74.2 °F 68.7 °F 29.92 in South 1.7 mph 3.5 mph 83 % 0.00 in
23:03 74.2 °F 68.7 °F 29.92 in SSW 1.5 mph 3.5 mph 83 % 0.00 in
23:08 74.3 °F 68.8 °F 29.91 in South 2.1 mph 5.8 mph 83 % 0.00 in
23:13 74.3 °F 68.8 °F 29.91 in South 1.4 mph 8.1 mph 83 % 0.00 in
23:19 74.3 °F 68.8 °F 29.92 in SW 1.0 mph 4.6 mph 83 % 0.00 in
23:24 74.4 °F 68.9 °F 29.92 in SSW 1.0 mph 3.0 mph 83 % 0.00 in
23:29 74.3 °F 68.8 °F 29.92 in South 1.7 mph 3.5 mph 83 % 0.00 in
23:34 74.4 °F 68.9 °F 29.92 in SSW 0.7 mph 4.0 mph 83 % 0.00 in
23:39 74.4 °F 68.9 °F 29.91 in South 0.6 mph 3.5 mph 83 % 0.00 in
23:44 74.4 °F 68.5 °F 29.91 in South 1.5 mph 3.5 mph 82 % 0.00 in
23:48 74.4 °F 68.9 °F 29.91 in South 1.5 mph 4.0 mph 83 % 0.00 in
23:52 74.4 °F 68.9 °F 29.91 in SSW 1.5 mph 3.5 mph 83 % 0.00 in
23:57 74.4 °F 68.9 °F 29.91 in SSW 1.6 mph 3.5 mph 83 % 0.00 in
Crab Meadow Weather
Compliments of Weather Underground - 3.25 mb

Script developed by  Jim McMurry - jmcmurry@mwt.net Adapted for the template by  Wim van der Kuil - Leuven-Template.eu

Heat Index: The heat index combines air temperature and dew point in an attempt to determine the human-perceived equivalent temperature - how hot it feels. The human body normally cools itself by sweating, which evaporates and carries heat away from the body. However, when the relative humidity is high the evaporation rate is reduced, so heat is removed from the body at a lower rate causing it to retain more heat than it would in dry air.